User: anonymous   Login
Location: The Top Of The Sky Mini Observatory
(41.4300°N, 81.2300°W)
Time: 06:02:40
(UTC-04:00)
Language:

Iridium 86 - Orbit

View from above orbital plane
View from above orbital plane
View from above satellite
View from above satellite

Ground track
Ground track

The orbit data is extracted from the following two-line orbital elements,

1 25528U 98066B   16273.45801238 -.00000023  00000-0 -15352-4 0  9998
2 25528  86.3913  98.8319 0002108  88.5984 271.5453 14.34215742941997
Epoch (UTC): 29 September 2016 10:59:32
Eccentricity: 0.0002108
inclination: 86.3913°
perigee height: 776 km
apogee height: 779 km
right ascension of ascending node: 98.8319°
argument of perigee: 88.5984°
revolutions per day: 14.34215742
mean anomaly at epoch: 271.5453°
orbit number at epoch: 94199

The dashed part of the orbit path shows where the satellite is in the earth's shadow,  

DLR